[[{"header":{"parameterUnit":"m.s-1","parameterCategory":2,"la1":30.2991,"la2":30.254,"lo1":-89.0895,"lo2":-89.0444,"dy":0.0017,"dx":0.0017,"nx":28,"ny":28,"refTime":"2024-10-14T03:00:00:Z","depth":"0","parameterNumber":2,"parameterNumberName":"U-component_of_CURRENTS"},"data":[0,0,0,0,0,0,0,0,0,0,0,0,0,0,0,0,0,0,0,0,0,0,0,0,0,0,0,0,0,0,0,0,0,0,0,0,0,0,0,0,0,0,0,0,0,0,0,0,0,0,0,0,0,0,0,0,0,0,0.3402,0.3403,0,0.3452,0.3452,0.3452,0.3438,0.3437,0.3436,0.3435,0.3377,0.3376,0.3375,0,0,0,0,0,0,0,0,0,0,0,0,0,0.3316,0.3317,0.3402,0.3403,0.3404,0.3451,0.3452,0.3452,0.3438,0.3437,0.3436,0.3435,0.3377,0.3376,0.3375,0,0,0,0,0,0,0,0,0,0,0,0,0,0.3354,0.3317,0.3402,0.3405,0.3406,0.3451,0.3452,0.3452,0.3438,0.3437,0.3436,0.3435,0.3377,0.3376,0.3375,0.3387,0,0,0.3371,0.337,0,0,0,0,0,0,0,0,0.3352,0.3357,0.3404,0.3405,0.3406,0.344,0.34,0.3426,0.3438,0.3422,0.3435,0.3434,0.3391,0.3389,0.3397,0.3384,0.3382,0.337,0.337,0.3369,0.3369,0,0,0,0,0,0,0,0.335,0.3355,0.3418,0.3405,0.3407,0.3411,0.3415,0.3405,0.3407,0.3423,0.3423,0.3435,0.339,0.3398,0.3395,0.3381,0.337,0.3369,0.3368,0.3368,0.3407,0.3409,0,0,0,0,0,0,0.3351,0.3353,0.3417,0.342,0.338,0.3414,0.3418,0.3428,0.3409,0.3408,0.3436,0.3434,0.3401,0.3397,0.3393,0.3418,0.3369,0.3368,0.3367,0.3405,0.3407,0.341,0,0,0,0,0,0,0.3349,0.3356,0.3415,0.339,0.3398,0.3417,0.3428,0.3429,0.3439,0.3421,0.3416,0.3444,0.34,0.3395,0.3401,0.3414,0.3367,0.3366,0.3403,0.3406,0.3409,0.346,0,0,0,0,0,0,0.3346,0.3355,0.3362,0.339,0.34,0.3445,0.3429,0.3431,0.345,0.3448,0.3427,0.342,0.3399,0.3403,0.3399,0.3412,0.3365,0.3401,0.3404,0.3408,0.3456,0.3464,0.3471,0,0,0,0,0,0.3343,0.3356,0.3361,0.3369,0.3408,0.3447,0.3452,0.3458,0.3451,0.3462,0.3456,0.3421,0.3423,0.3404,0.3399,0.3411,0.3399,0.3403,0.3407,0.3452,0.3462,0.3471,0,0,0,0,0,0,0.3318,0.3357,0.3363,0.3386,0.3417,0.3445,0.3456,0.3466,0.3472,0.3465,0.3442,0.3437,0.3453,0.3432,0.3411,0.3437,0.3406,0.3409,0.3442,0.3451,0.3459,0.3471,0.3364,0,0,0,0,0,0.3319,0.3339,0.3377,0.3396,0.341,0.3435,0.3451,0.3461,0.3474,0.3476,0.3462,0.3456,0.3468,0.3458,0.3461,0.3467,0.3491,0.3475,0.3483,0.3489,0.3499,0.3569,0.3584,0.3423,0.3423,0.3423,0,0,0.3315,0.334,0.335,0.3392,0.3411,0.344,0.3441,0.347,0.3489,0.3467,0.3476,0.3484,0.3481,0.3498,0.3501,0.3476,0.355,0.3494,0.3499,0.3506,0.3575,0.3591,0.3605,0.3426,0.3426,0.3425,0,0,0.3319,0.3338,0.3356,0.3385,0.3425,0.3445,0.3457,0.3488,0.3495,0.3516,0.3517,0.3543,0.3529,0.3548,0.3553,0.3607,0.3598,0.3598,0.3629,0.3698,0.3712,0.3724,0.3784,0.3801,0.3589,0.3589,0.3589,0,0.3312,0.334,0.3367,0.3395,0.3417,0.3449,0.3473,0.3496,0.3524,0.3536,0.3519,0.3565,0.356,0.361,0.3631,0.3623,0.3657,0.3589,0.3708,0.3721,0.3732,0.3791,0.3809,0.3592,0.3592,0.3591,0.3591,0,0.3329,0.3356,0.337,0.3413,0.344,0.347,0.3507,0.3528,0.3536,0.356,0.3606,0.3624,0.365,0.3659,0.3656,0.3739,0.3737,0.3719,0.3682,0.3752,0.3809,0.3827,0.3596,0.3595,0.3594,0.3594,0,0,0.3307,0.3369,0.3374,0.339,0.3452,0.3471,0.3512,0.3558,0.3578,0.3615,0.3648,0.3702,0.372,0.3732,0.3745,0.3802,0.3918,0.3794,0.3796,0.3849,0.4073,0.4005,0.4018,0.392,0.3924,0.3926,0.4082,0,0.3312,0.3352,0.3388,0.3425,0.3447,0.3491,0.3521,0.3566,0.3596,0.3633,0.369,0.3725,0.3745,0.3757,0.3831,0.3889,0.3967,0.3877,0.4001,0.4005,0.3932,0.4037,0.3879,0.3999,0.41,0.4103,0.4105,0,0.3313,0.3343,0.3374,0.3421,0.3432,0.3456,0.3502,0.3536,0.3611,0.3634,0.3706,0.3744,0.3848,0.3841,0.4017,0.3958,0.4033,0.4081,0.4088,0.4018,0.397,0.3945,0.4028,0.3844,0.4133,0.413,0.4128,0,0.3267,0.3328,0.3344,0.3365,0.3427,0.3439,0.3467,0.3531,0.3556,0.364,0.3666,0.3792,0.3841,0.3972,0.4089,0.4059,0.4274,0.4237,0.4259,0.4255,0.4141,0.412,0.4054,0.4385,0.4385,0.4385,0.4384,0,0.3253,0.3268,0.3318,0.333,0.3346,0.3395,0.3415,0.3463,0.3527,0.3564,0.3663,0.3719,0.3877,0.4007,0.4119,0.4254,0.4311,0.4297,0.4302,0.4154,0.4134,0.3982,0.3906,0.439,0.4389,0.4388,0.4387,0,0.3202,0.3238,0.326,0.3312,0.3324,0.3331,0.3376,0.3392,0.3461,0.3515,0.3544,0.3685,0.3843,0.401,0.4211,0.4269,0.428,0.4447,0.4258,0.4238,0.4031,0.3965,0.3872,0.3779,0.4481,0.448,0.448,0,0.3177,0.3185,0.3231,0.3234,0.3255,0.3272,0.3284,0.3352,0.3374,0.3494,0.3518,0.3676,0.3785,0.4055,0.4196,0.4389,0.4259,0.4325,0.4234,0.402,0.3952,0.3822,0.3741,0.4119,0.4115,0.4113,0.411,0,0.314,0.3153,0.3173,0.3177,0.3185,0.3196,0.3219,0.323,0.3313,0.3363,0.3446,0.354,0.378,0.3882,0.4116,0.4221,0.4065,0.427,0.4104,0.3717,0.3518,0.3428,0.4012,0.4085,0.4088,0.409,0.4091,0.4092,0.3105,0.3102,0.3117,0.3114,0.3116,0.3108,0.3094,0.3133,0.3162,0.3217,0.3341,0.3426,0.357,0.3861,0.3941,0.3873,0.3915,0.377,0.3733,0.3638,0.3456,0.3979,0.401,0.4012,0.4014,0.4015,0.4017,0,0.3044,0.3047,0.3049,0.3033,0.2998,0.3031,0.3036,0.3011,0.3016,0.3104,0.3162,0.3219,0.3308,0.3414,0.3439,0.3344,0.3261,0.324,0.3003,0.2974,0.3489,0.3373,0.3196,0.3196,0.3196,0.3197,0.3197,0.3197,0.3012,0.2988,0.2987,0.2917,0.2899,0.2839,0.2829,0.2817,0.2853,0.2818,0.2811,0.2867,0.2922,0.2926,0.2818,0.2804,0.2603,0.2519,0.2524,0.2836,0.288,0.2922,0.2793,0.2497,0.2496,0.1903,0.1898,0.1894]},{"header":{"parameterUnit":"m.s-1","parameterCategory":2,"la1":30.2991,"la2":30.254,"lo1":-89.0895,"lo2":-89.0444,"dy":0.0017,"dx":0.0017,"nx":28,"ny":28,"refTime":"2024-10-14T03:00:00:Z","depth":"0","parameterNumber":3,"parameterNumberName":"V-component_of_CURRENTS"},"data":[0,0,0,0,0,0,0,0,0,0,0,0,0,0,0,0,0,0,0,0,0,0,0,0,0,0,0,0,0,0,0,0,0,0,0,0,0,0,0,0,0,0,0,0,0,0,0,0,0,0,0,0,0,0,0,0,0,0,0.0626,0.0626,0,0.062,0.062,0.062,0.0587,0.0587,0.0586,0.0585,0.0494,0.0492,0.049,0,0,0,0,0,0,0,0,0,0,0,0,0,0.0598,0.0599,0.0626,0.0626,0.0626,0.062,0.062,0.062,0.0587,0.0587,0.0586,0.0585,0.0495,0.0492,0.049,0,0,0,0,0,0,0,0,0,0,0,0,0,0.0602,0.0599,0.0626,0.061,0.0608,0.062,0.062,0.062,0.0588,0.0587,0.0586,0.0585,0.0495,0.0493,0.049,0.0494,0,0,0.0482,0.0481,0,0,0,0,0,0,0,0,0.0602,0.0603,0.0612,0.0611,0.0609,0.0604,0.0577,0.0574,0.0588,0.0594,0.0585,0.0584,0.0524,0.0519,0.052,0.0489,0.0485,0.0481,0.048,0.0479,0.0478,0,0,0,0,0,0,0,0.0602,0.0603,0.0622,0.0612,0.0611,0.06,0.0599,0.0576,0.0563,0.0594,0.0591,0.0593,0.0523,0.0523,0.0517,0.0484,0.0482,0.0479,0.0477,0.0476,0.0445,0.0445,0,0,0,0,0,0,0.0607,0.0603,0.0622,0.0622,0.0604,0.0601,0.06,0.0606,0.0565,0.0558,0.0594,0.0592,0.0528,0.0521,0.0514,0.0526,0.0479,0.0476,0.0475,0.0444,0.0445,0.0446,0,0,0,0,0,0,0.0606,0.0609,0.0623,0.0613,0.0614,0.0603,0.0609,0.0606,0.0606,0.0566,0.0558,0.0596,0.0527,0.0518,0.0505,0.0521,0.0475,0.0472,0.0443,0.0444,0.0445,0.0542,0,0,0,0,0,0,0.0606,0.0609,0.0617,0.0614,0.0615,0.0635,0.061,0.0607,0.0609,0.0605,0.0565,0.0556,0.0525,0.0509,0.0502,0.0517,0.047,0.0442,0.0443,0.0445,0.0538,0.0547,0.0554,0,0,0,0,0,0.0605,0.0621,0.0618,0.062,0.0626,0.0636,0.0636,0.0623,0.061,0.0617,0.0593,0.0557,0.0513,0.0508,0.0499,0.0514,0.0441,0.0443,0.0445,0.0535,0.0545,0.0554,0,0,0,0,0,0,0.0614,0.0619,0.0615,0.0632,0.0637,0.0631,0.0637,0.063,0.0619,0.0611,0.0571,0.0561,0.0556,0.0521,0.0517,0.0508,0.0469,0.0469,0.054,0.055,0.0557,0.0577,0.0468,0,0,0,0,0,0.0622,0.0633,0.0636,0.065,0.0653,0.0647,0.0649,0.0643,0.0633,0.0627,0.06,0.0572,0.0558,0.0543,0.0522,0.0518,0.0501,0.0519,0.0527,0.0534,0.0544,0.0543,0.0552,0.0451,0.0451,0.0451,0,0,0.063,0.0634,0.0641,0.0653,0.0653,0.0667,0.0645,0.0654,0.0665,0.0618,0.062,0.06,0.0565,0.0565,0.0558,0.0536,0.0555,0.0536,0.0543,0.0549,0.0546,0.0556,0.0565,0.0452,0.0452,0.0452,0,0,0.0651,0.0655,0.0671,0.0678,0.0685,0.0684,0.0689,0.0687,0.0685,0.069,0.0663,0.0662,0.0626,0.0618,0.0606,0.0644,0.0601,0.0626,0.0678,0.0678,0.0687,0.0694,0.0693,0.07,0.0625,0.0626,0.0626,0,0.0663,0.0682,0.0678,0.0696,0.0707,0.0694,0.0717,0.0717,0.0712,0.0723,0.0698,0.0689,0.0657,0.0676,0.0687,0.0664,0.0653,0.0648,0.069,0.0697,0.0703,0.07,0.0706,0.063,0.063,0.0629,0.0629,0,0.0691,0.0711,0.0722,0.074,0.0753,0.077,0.0773,0.0782,0.0777,0.0781,0.0799,0.0773,0.0769,0.0758,0.0732,0.0762,0.0738,0.0707,0.0672,0.072,0.0713,0.0718,0.0637,0.0636,0.0634,0.0633,0,0,0.0713,0.0739,0.0743,0.0762,0.0779,0.0793,0.0818,0.0845,0.0873,0.0865,0.0906,0.0889,0.0882,0.0869,0.0842,0.0839,0.0872,0.0793,0.0791,0.0803,0.0873,0.0833,0.0833,0.0847,0.0848,0.0849,0.0855,0,0.0741,0.0777,0.0787,0.083,0.0851,0.0859,0.0889,0.0911,0.0924,0.0958,0.0949,0.0968,0.0921,0.0928,0.0923,0.089,0.0886,0.0873,0.0816,0.0814,0.0781,0.0838,0.0806,0.0806,0.0859,0.086,0.0861,0,0.0765,0.079,0.083,0.0881,0.0893,0.0917,0.097,0.0996,0.1039,0.1052,0.1077,0.1069,0.1084,0.1027,0.1005,0.0998,0.0945,0.091,0.0908,0.084,0.0782,0.0763,0.0812,0.0632,0.0867,0.0867,0.0866,0,0.0771,0.0824,0.0855,0.087,0.0921,0.0949,0.0979,0.1025,0.1063,0.1116,0.1152,0.1164,0.1175,0.1127,0.1062,0.1033,0.1031,0.0977,0.0892,0.0888,0.0834,0.0824,0.0711,0.0955,0.0955,0.0955,0.0955,0,0.0792,0.0821,0.0861,0.0879,0.0937,0.0967,0.1033,0.1066,0.113,0.1193,0.12,0.1251,0.1198,0.1191,0.111,0.1033,0.1068,0.092,0.0894,0.0866,0.0859,0.0676,0.0595,0.0955,0.0955,0.0955,0.0955,0,0.0788,0.081,0.0856,0.0915,0.0937,0.0976,0.1058,0.1112,0.1166,0.125,0.1272,0.1324,0.1325,0.1267,0.1201,0.1095,0.0934,0.0975,0.0949,0.092,0.0648,0.0575,0.05,0.0448,0.088,0.0879,0.0878,0,0.0785,0.0806,0.0871,0.0904,0.0932,0.0995,0.1047,0.1117,0.118,0.1296,0.1342,0.1384,0.1437,0.1345,0.1183,0.1058,0.0922,0.0899,0.0828,0.0643,0.0543,0.0522,0.0482,0.0799,0.0797,0.0796,0.0795,0,0.0792,0.0811,0.085,0.0914,0.0969,0.1042,0.1121,0.1175,0.1272,0.1357,0.1466,0.1526,0.1457,0.1355,0.1179,0.1051,0.0779,0.0869,0.0688,0.0485,0.0447,0.0381,0.078,0.0786,0.0787,0.0787,0.0788,0.0788,0.0794,0.0822,0.0871,0.0935,0.1002,0.1089,0.1154,0.1254,0.1369,0.153,0.1565,0.1704,0.15,0.1275,0.1077,0.0645,0.0702,0.0495,0.0429,0.0431,0.0354,0.0732,0.0696,0.0696,0.0696,0.0697,0.0697,0,0.0792,0.0831,0.0893,0.0973,0.1048,0.1085,0.1207,0.1294,0.1436,0.1625,0.1748,0.1738,0.1444,0.1123,0.0563,0.0264,0.0184,0.0089,0.003,0.0017,0.035,0.0313,0.0179,0.0179,0.018,0.018,0.018,0.018,0.0792,0.084,0.0878,0.0995,0.1059,0.1165,0.1237,0.1386,0.1543,0.1778,0.19,0.1979,0.1651,0.0652,-0.003,-0.0174,-0.0345,-0.0375,-0.0444,-0.0276,-0.0244,-0.0213,-0.027,-0.0523,-0.0524,-0.0742,-0.0745,-0.0747]}],[{"header":{"parameterUnit":"m.s-1","parameterCategory":2,"la1":30.2991,"la2":30.254,"lo1":-89.0895,"lo2":-89.0444,"dy":0.0017,"dx":0.0017,"nx":28,"ny":28,"refTime":"2024-10-14T03:00:00:Z","depth":"2","parameterNumber":2,"parameterNumberName":"U-component_of_CURRENTS"},"data":[0,0,0,0,0,0,0,0,0,0,0,0,0,0,0,0,0,0,0,0,0,0,0,0,0,0,0,0,0,0,0,0,0,0,0,0,0,0,0,0,0,0,0,0,0,0,0,0,0,0,0,0,0,0,0,0,0,0,0.1746,0.1747,0,0.1784,0.1785,0.1785,0.1816,0.1816,0.1817,0.1817,0.1857,0.1857,0.1858,0,0,0,0,0,0,0,0,0,0,0,0,0,0.1705,0.1705,0.1746,0.1747,0.1748,0.1784,0.1785,0.1785,0.1816,0.1816,0.1817,0.1817,0.1856,0.1857,0.1858,0,0,0,0,0,0,0,0,0,0,0,0,0,0.1729,0.1705,0.1746,0.1769,0.1771,0.1784,0.1785,0.1785,0.1815,0.1816,0.1817,0.1817,0.1856,0.1857,0.1858,0.185,0,0,0.1861,0.1861,0,0,0,0,0,0,0,0,0.1728,0.1731,0.1765,0.1767,0.177,0.1797,0.1785,0.1807,0.1815,0.1797,0.1817,0.1818,0.1837,0.184,0.1843,0.1852,0.1853,0.1861,0.1861,0.1862,0.1862,0,0,0,0,0,0,0,0.1726,0.1729,0.176,0.1765,0.1768,0.1778,0.1782,0.1789,0.1812,0.1798,0.1801,0.1808,0.1839,0.1842,0.1844,0.1854,0.1861,0.1862,0.1862,0.1863,0.1973,0.1975,0,0,0,0,0,0,0.1724,0.1727,0.1759,0.1761,0.1752,0.1779,0.1783,0.1787,0.1812,0.1816,0.1807,0.1809,0.184,0.1843,0.1846,0.1893,0.1862,0.1863,0.1863,0.1971,0.1974,0.1976,0,0,0,0,0,0,0.1723,0.1726,0.1757,0.1747,0.1752,0.1779,0.1782,0.1787,0.1805,0.1818,0.1823,0.1823,0.1841,0.1845,0.1875,0.1893,0.1863,0.1864,0.1968,0.1972,0.1975,0.1953,0,0,0,0,0,0,0.1721,0.1725,0.1731,0.1746,0.1752,0.1771,0.1782,0.1787,0.1808,0.1812,0.1833,0.1837,0.1842,0.1873,0.1876,0.1894,0.1865,0.1965,0.197,0.1974,0.195,0.1955,0.1959,0,0,0,0,0,0.1719,0.1719,0.173,0.1735,0.1757,0.1771,0.1774,0.1795,0.1809,0.1815,0.1841,0.1837,0.1905,0.1875,0.1877,0.1896,0.1963,0.1968,0.1974,0.1948,0.1954,0.1959,0,0,0,0,0,0,0.1705,0.1723,0.1736,0.1742,0.176,0.1777,0.1785,0.1801,0.1825,0.1834,0.1849,0.1854,0.1893,0.1907,0.1874,0.1951,0.194,0.1946,0.1921,0.1926,0.193,0.1912,0.1865,0,0,0,0,0,0.1704,0.1708,0.173,0.1737,0.1746,0.1769,0.1779,0.1795,0.1817,0.1828,0.1848,0.1882,0.1914,0.1928,0.1955,0.198,0.1994,0.2006,0.201,0.2013,0.2006,0.2057,0.2064,0.1994,0.1994,0.1994,0,0,0.1699,0.1711,0.1714,0.1734,0.175,0.1759,0.1777,0.1794,0.1808,0.1828,0.1857,0.1891,0.1927,0.1963,0.1983,0.1975,0.2042,0.202,0.2022,0.2012,0.2063,0.2069,0.2075,0.1998,0.1997,0.1996,0,0,0.1685,0.1705,0.1702,0.1718,0.1743,0.1758,0.1767,0.1794,0.1814,0.1845,0.1875,0.1914,0.196,0.1985,0.2005,0.2051,0.2063,0.2083,0.2079,0.2129,0.2134,0.2139,0.2153,0.2159,0.2083,0.2083,0.2083,0,0.1684,0.1683,0.1705,0.1708,0.1722,0.1759,0.1763,0.1786,0.1823,0.1845,0.1857,0.1947,0.1966,0.2015,0.2036,0.2054,0.2084,0.2045,0.213,0.2135,0.214,0.2154,0.216,0.2083,0.2083,0.2083,0.2083,0,0.1662,0.1672,0.1674,0.1691,0.1708,0.172,0.1754,0.1781,0.1816,0.1845,0.1908,0.1945,0.2002,0.2023,0.2037,0.2097,0.2106,0.2124,0.2102,0.2144,0.2158,0.2165,0.2082,0.2082,0.2082,0.2082,0,0,0.1636,0.1655,0.1659,0.1666,0.1703,0.1712,0.1744,0.1783,0.1815,0.1862,0.1907,0.1963,0.2002,0.203,0.2066,0.2101,0.2148,0.213,0.2133,0.2116,0.2249,0.2195,0.2197,0.2193,0.2195,0.2196,0.2238,0,0.1619,0.1616,0.1635,0.1646,0.1649,0.1696,0.1723,0.1767,0.1818,0.1873,0.1927,0.1986,0.2003,0.2043,0.2082,0.2147,0.2171,0.2134,0.2234,0.2236,0.216,0.2205,0.1979,0.1994,0.2245,0.2246,0.2247,0,0.159,0.1596,0.1595,0.1627,0.1636,0.1653,0.1714,0.1745,0.1828,0.1876,0.1946,0.1999,0.2067,0.2076,0.2179,0.2166,0.2202,0.2234,0.2237,0.2196,0.2196,0.1999,0.1998,0.2259,0.2258,0.2257,0.2256,0,0.1549,0.157,0.1569,0.1578,0.1619,0.164,0.1675,0.1748,0.1793,0.1889,0.1941,0.2027,0.2093,0.2154,0.2235,0.222,0.2343,0.2328,0.23,0.2295,0.2124,0.2102,0.2382,0.2382,0.2382,0.2382,0.2382,0,0.1514,0.1517,0.1553,0.1552,0.1572,0.1615,0.1659,0.1713,0.1803,0.1862,0.1948,0.2023,0.2125,0.2212,0.2253,0.2311,0.2365,0.2298,0.231,0.2111,0.2089,0.234,0.2334,0.2384,0.2383,0.2383,0.2383,0,0.146,0.1483,0.1486,0.1529,0.1549,0.1565,0.1648,0.1681,0.1781,0.1864,0.19,0.2047,0.2166,0.2248,0.236,0.2338,0.2389,0.2392,0.2137,0.2118,0.2289,0.2283,0.2334,0.2332,0.2331,0.233,0.2329,0,0.1426,0.142,0.1459,0.1467,0.1488,0.153,0.1559,0.1661,0.1705,0.1878,0.1911,0.2067,0.2144,0.2283,0.226,0.2287,0.2414,0.2125,0.2037,0.2281,0.2288,0.2283,0.2279,0.1796,0.1791,0.1786,0.1783,0,0.1362,0.1381,0.1384,0.1404,0.143,0.1459,0.1514,0.1551,0.1675,0.1762,0.1895,0.1972,0.2069,0.2025,0.2069,0.2048,0.2095,0.2039,0.2384,0.185,0.178,0.1785,0.1797,0.1746,0.1749,0.1752,0.1754,0.1756,0.1316,0.1308,0.132,0.1336,0.1359,0.1378,0.1388,0.1462,0.1537,0.163,0.1774,0.1837,0.1845,0.1792,0.1768,0.1741,0.1852,0.1794,0.1804,0.182,0.1757,0.169,0.1625,0.1627,0.163,0.1632,0.1634,0,0.1251,0.1256,0.1254,0.1264,0.1252,0.1307,0.1344,0.134,0.14,0.1496,0.1582,0.1453,0.1445,0.1524,0.1376,0.1344,0.1284,0.1354,0.1281,0.1316,0.1349,0.1261,0.0998,0.0997,0.0996,0.0995,0,0,0.1215,0.1189,0.1189,0.1154,0.1171,0.1155,0.1167,0.1176,0.1224,0.1206,0.1238,0.1351,0.1435,0.1212,0.1153,0.1089,0.1198,0.1031,0.1526,0.1472,0.1504,0.157,0.1471,0,0,0,0,0]},{"header":{"parameterUnit":"m.s-1","parameterCategory":2,"la1":30.2991,"la2":30.254,"lo1":-89.0895,"lo2":-89.0444,"dy":0.0017,"dx":0.0017,"nx":28,"ny":28,"refTime":"2024-10-14T03:00:00:Z","depth":"2","parameterNumber":3,"parameterNumberName":"V-component_of_CURRENTS"},"data":[0,0,0,0,0,0,0,0,0,0,0,0,0,0,0,0,0,0,0,0,0,0,0,0,0,0,0,0,0,0,0,0,0,0,0,0,0,0,0,0,0,0,0,0,0,0,0,0,0,0,0,0,0,0,0,0,0,0,-0.023,-0.023,0,-0.029,-0.0291,-0.0292,-0.0333,-0.0333,-0.0334,-0.0334,-0.0417,-0.0419,-0.0421,0,0,0,0,0,0,0,0,0,0,0,0,0,-0.0167,-0.0167,-0.0229,-0.023,-0.0231,-0.029,-0.0291,-0.0292,-0.0333,-0.0333,-0.0334,-0.0334,-0.0416,-0.0418,-0.0421,0,0,0,0,0,0,0,0,0,0,0,0,0,-0.0207,-0.0168,-0.0229,-0.0258,-0.0262,-0.029,-0.0291,-0.0292,-0.0333,-0.0333,-0.0334,-0.0334,-0.0415,-0.0418,-0.0421,-0.0431,0,0,-0.043,-0.0431,0,0,0,0,0,0,0,0,-0.0205,-0.021,-0.0253,-0.0257,-0.026,-0.0305,-0.03,-0.034,-0.0333,-0.0306,-0.0334,-0.0334,-0.0381,-0.0387,-0.0397,-0.0435,-0.0438,-0.043,-0.0432,-0.0433,-0.0434,0,0,0,0,0,0,0,-0.0202,-0.0207,-0.0254,-0.0254,-0.0258,-0.0275,-0.0281,-0.0307,-0.0341,-0.0308,-0.0312,-0.0318,-0.0383,-0.0394,-0.0399,-0.0439,-0.043,-0.0433,-0.0435,-0.0436,-0.0458,-0.0457,0,0,0,0,0,0,-0.0193,-0.0205,-0.0252,-0.0256,-0.0233,-0.0275,-0.0282,-0.029,-0.034,-0.0348,-0.0318,-0.032,-0.0389,-0.0396,-0.0402,-0.0406,-0.0433,-0.0436,-0.0438,-0.0459,-0.0458,-0.0457,0,0,0,0,0,0,-0.0191,-0.0197,-0.0249,-0.0231,-0.0239,-0.0276,-0.0284,-0.0291,-0.0297,-0.0347,-0.0355,-0.0316,-0.039,-0.0398,-0.0416,-0.041,-0.0437,-0.044,-0.0461,-0.0459,-0.0457,-0.042,0,0,0,0,0,0,-0.0189,-0.0196,-0.0194,-0.0231,-0.024,-0.0259,-0.0284,-0.0292,-0.0301,-0.0304,-0.0349,-0.0357,-0.0391,-0.0411,-0.0419,-0.0415,-0.0442,-0.0462,-0.046,-0.0458,-0.0423,-0.0418,-0.0413,0,0,0,0,0,-0.0187,-0.0183,-0.0194,-0.02,-0.0238,-0.0258,-0.0264,-0.0292,-0.03,-0.03,-0.0326,-0.0356,-0.0402,-0.0413,-0.0422,-0.0419,-0.0463,-0.0461,-0.0458,-0.0425,-0.0419,-0.0413,0,0,0,0,0,0,-0.0158,-0.0188,-0.0201,-0.0207,-0.0227,-0.0265,-0.0267,-0.0283,-0.0303,-0.0305,-0.0348,-0.0358,-0.0368,-0.0392,-0.0402,-0.0414,-0.0435,-0.0434,-0.0407,-0.0401,-0.0396,-0.0392,-0.0445,0,0,0,0,0,-0.0149,-0.0152,-0.0185,-0.0189,-0.0197,-0.0228,-0.0238,-0.0256,-0.0281,-0.029,-0.0319,-0.0344,-0.0364,-0.0381,-0.04,-0.0414,-0.0441,-0.0413,-0.0408,-0.0404,-0.0404,-0.0435,-0.0434,-0.0448,-0.0448,-0.0448,0,0,-0.0139,-0.0155,-0.0158,-0.0182,-0.02,-0.0208,-0.0235,-0.0245,-0.0251,-0.0296,-0.0306,-0.0327,-0.036,-0.0373,-0.038,-0.0395,-0.0411,-0.04,-0.0397,-0.04,-0.0433,-0.0432,-0.0431,-0.0446,-0.0447,-0.0447,0,0,-0.0117,-0.0134,-0.0128,-0.0142,-0.0163,-0.0185,-0.0183,-0.0213,-0.0225,-0.0237,-0.0265,-0.0284,-0.0314,-0.0343,-0.036,-0.0337,-0.0378,-0.0333,-0.0318,-0.0348,-0.0348,-0.0348,-0.0376,-0.038,-0.0338,-0.0338,-0.0338,0,-0.0104,-0.0102,-0.0129,-0.0127,-0.0131,-0.017,-0.0161,-0.0184,-0.0214,-0.0216,-0.0232,-0.0269,-0.0303,-0.0323,-0.0317,-0.0329,-0.0348,-0.0343,-0.0344,-0.0344,-0.0345,-0.0375,-0.0378,-0.0336,-0.0336,-0.0337,-0.0337,0,-0.0081,-0.0078,-0.0074,-0.0085,-0.0093,-0.0092,-0.0123,-0.0129,-0.0146,-0.0169,-0.0182,-0.0228,-0.0249,-0.0263,-0.029,-0.0305,-0.0317,-0.033,-0.0364,-0.0342,-0.0374,-0.0378,-0.0333,-0.0334,-0.0335,-0.0335,0,0,-0.0058,-0.0057,-0.0056,-0.0041,-0.0066,-0.0064,-0.0073,-0.0086,-0.0074,-0.012,-0.0109,-0.0167,-0.0189,-0.0208,-0.0244,-0.0282,-0.0312,-0.0307,-0.031,-0.0344,-0.0375,-0.0346,-0.0349,-0.0325,-0.0326,-0.0326,-0.0395,0,-0.0031,-0.0004,-0.0017,0.0011,0.0025,-0.0002,0.0001,-0.0016,-0.0033,-0.0033,-0.0097,-0.0102,-0.017,-0.0169,-0.0222,-0.0273,-0.0322,-0.0292,-0.0384,-0.0387,-0.0371,-0.0353,-0.034,-0.0396,-0.04,-0.04,-0.0401,0,-0.0005,0.0014,0.0048,0.008,0.0084,0.009,0.0106,0.0106,0.0081,0.0072,0.0034,-0.0005,-0.0066,-0.0118,-0.0238,-0.0212,-0.0293,-0.0352,-0.0356,-0.0346,-0.0366,-0.0418,-0.0405,-0.041,-0.0409,-0.0408,-0.0408,0,0.0035,0.0063,0.0099,0.0105,0.0122,0.0138,0.0147,0.0137,0.0163,0.014,0.016,0.0072,0.0061,-0.0069,-0.0186,-0.0214,-0.0304,-0.0358,-0.042,-0.0419,-0.0435,-0.0433,-0.0454,-0.0454,-0.0454,-0.0454,-0.0454,0,0.0071,0.0103,0.0123,0.0143,0.0199,0.0192,0.0249,0.0244,0.0263,0.0312,0.0219,0.0249,0.0076,0.0007,-0.0145,-0.0273,-0.0277,-0.0413,-0.0432,-0.0419,-0.0415,-0.0449,-0.0447,-0.0457,-0.0456,-0.0455,-0.0455,0,0.0108,0.0117,0.0168,0.0202,0.0218,0.0258,0.0322,0.0369,0.037,0.0435,0.0436,0.0392,0.031,0.0137,-0.0035,-0.0184,-0.0332,-0.0381,-0.0346,-0.036,-0.0451,-0.0447,-0.0488,-0.0487,-0.0487,-0.0486,-0.0486,0,0.013,0.0159,0.0214,0.0253,0.027,0.0332,0.0383,0.0414,0.0474,0.0534,0.0577,0.0535,0.0518,0.0282,0.0025,-0.0227,-0.0268,-0.0378,-0.0442,-0.0439,-0.0454,-0.045,-0.0446,-0.0457,-0.0457,-0.0456,-0.0456,0,0.0179,0.0194,0.0236,0.0313,0.0373,0.0458,0.0533,0.0606,0.0664,0.0728,0.0832,0.0828,0.0612,0.0382,0.0047,-0.0128,-0.0341,-0.0376,-0.0378,-0.0433,-0.0411,-0.0425,-0.0423,-0.0452,-0.0453,-0.0453,-0.0453,-0.0453,0.0213,0.0255,0.0308,0.0385,0.0461,0.0579,0.0675,0.0786,0.0916,0.102,0.1009,0.0978,0.0673,0.0238,0.0002,-0.0259,-0.0301,-0.0436,-0.0438,-0.044,-0.0407,-0.0383,-0.0414,-0.0414,-0.0414,-0.0414,-0.0414,0,0.0256,0.0305,0.0382,0.0485,0.0588,0.0613,0.0776,0.0908,0.1099,0.1118,0.1192,0.0876,0.0606,0.03,-0.0097,-0.0348,-0.0378,-0.0398,-0.0407,-0.0411,-0.0414,-0.0379,-0.0379,-0.0379,-0.0379,-0.0379,0,0,0.0283,0.0358,0.0402,0.0574,0.0654,0.082,0.0927,0.1137,0.1214,0.1243,0.1155,0.1021,0.0622,0.0333,0.0019,-0.0162,-0.0218,-0.019,-0.0204,-0.0181,-0.018,-0.0434,-0.0383,0,0,0,0,0]}],[{"header":{"parameterUnit":"m.s-1","parameterCategory":2,"la1":30.2991,"la2":30.254,"lo1":-89.0895,"lo2":-89.0444,"dy":0.0017,"dx":0.0017,"nx":28,"ny":28,"refTime":"2024-10-14T03:00:00:Z","depth":"4","parameterNumber":2,"parameterNumberName":"U-component_of_CURRENTS"},"data":[0,0,0,0,0,0,0,0,0,0,0,0,0,0,0,0,0,0,0,0,0,0,0,0,0,0,0,0,0,0,0,0,0,0,0,0,0,0,0,0,0,0,0,0,0,0,0,0,0,0,0,0,0,0,0,0,0,0,0.0339,0.0339,0,0.0358,0.0358,0.0358,0.0408,0.0409,0.041,0.0411,0.0465,0.0465,0.0465,0,0,0,0,0,0,0,0,0,0,0,0,0,0.03,0.03,0.0339,0.0339,0.0339,0.0358,0.0358,0.0358,0.0407,0.0409,0.041,0.0412,0.0464,0.0465,0.0465,0,0,0,0,0,0,0,0,0,0,0,0,0,0.0315,0.03,0.0339,0.0368,0.0371,0.0358,0.0358,0.0358,0.0407,0.0409,0.0411,0.0413,0.0464,0.0465,0.0465,0.043,0,0,0.0466,0.0466,0,0,0,0,0,0,0,0,0.0315,0.0317,0.0363,0.0366,0.0369,0.0384,0.0364,0.0385,0.0407,0.0391,0.0411,0.0413,0.0441,0.0443,0.0439,0.0433,0.0435,0.0466,0.0467,0.0467,0.0467,0,0,0,0,0,0,0,0.0313,0.0316,0.0344,0.0363,0.0367,0.0365,0.0369,0.0367,0.0404,0.0393,0.0397,0.0402,0.0443,0.0439,0.0441,0.0436,0.0466,0.0467,0.0467,0.0467,0.0499,0.05,0,0,0,0,0,0,0.0316,0.0315,0.0344,0.0345,0.0348,0.0364,0.0369,0.0376,0.0404,0.041,0.04,0.0404,0.0437,0.044,0.0443,0.0495,0.0467,0.0467,0.0467,0.0499,0.05,0.05,0,0,0,0,0,0,0.0315,0.0318,0.0343,0.0332,0.0335,0.0364,0.037,0.0375,0.0396,0.0409,0.0416,0.0419,0.0439,0.0443,0.0468,0.0494,0.0467,0.0468,0.0498,0.0499,0.05,0.0539,0,0,0,0,0,0,0.0313,0.0317,0.0331,0.0332,0.0336,0.0353,0.0369,0.0374,0.0396,0.0402,0.0427,0.0433,0.044,0.0467,0.0468,0.0494,0.0468,0.0497,0.0498,0.05,0.0537,0.0541,0.0545,0,0,0,0,0,0.0312,0.0316,0.0331,0.0335,0.0351,0.0354,0.0356,0.038,0.0395,0.0405,0.0427,0.0433,0.0476,0.0468,0.0469,0.0495,0.0497,0.0498,0.05,0.0535,0.054,0.0545,0,0,0,0,0,0,0.0302,0.0321,0.0339,0.0349,0.0362,0.0364,0.0375,0.0386,0.0408,0.0425,0.0435,0.0441,0.0475,0.0473,0.0463,0.0507,0.0489,0.0491,0.0516,0.0521,0.0525,0.0541,0.0468,0,0,0,0,0,0.0306,0.0316,0.0334,0.0342,0.0353,0.0366,0.0374,0.0393,0.0408,0.042,0.0442,0.0462,0.0473,0.0489,0.05,0.0516,0.0515,0.0536,0.054,0.0543,0.0557,0.0563,0.0569,0.0505,0.0505,0.0505,0,0,0.0303,0.0314,0.0321,0.0341,0.0354,0.0367,0.0376,0.0397,0.0414,0.0421,0.046,0.0475,0.048,0.0508,0.0523,0.0516,0.0561,0.0545,0.0548,0.056,0.0566,0.0572,0.0578,0.0506,0.0506,0.0506,0,0,0.0296,0.0316,0.0328,0.0342,0.0371,0.0377,0.0388,0.0413,0.0437,0.0469,0.048,0.051,0.0534,0.0544,0.0548,0.0574,0.0579,0.0585,0.0624,0.063,0.0636,0.0641,0.0648,0.0654,0.0591,0.0591,0.0591,0,0.0299,0.0313,0.033,0.0347,0.0364,0.0384,0.0405,0.0418,0.0452,0.048,0.0494,0.0545,0.0548,0.0574,0.0594,0.0584,0.0594,0.0606,0.0636,0.0641,0.0645,0.0652,0.0657,0.0593,0.0593,0.0593,0.0592,0,0.03,0.0321,0.0327,0.0358,0.0378,0.0394,0.0423,0.0459,0.0495,0.0516,0.0572,0.0584,0.0621,0.0623,0.0621,0.0658,0.0657,0.0637,0.0625,0.0654,0.0659,0.0664,0.0596,0.0595,0.0595,0.0594,0,0,0.0281,0.0323,0.0327,0.0353,0.0391,0.0405,0.0447,0.0489,0.0527,0.0574,0.0628,0.0651,0.068,0.0686,0.0689,0.07,0.0734,0.0696,0.0695,0.0707,0.0763,0.0704,0.0703,0.0728,0.0729,0.073,0.0754,0,0.0283,0.0314,0.0337,0.0371,0.0395,0.0439,0.0469,0.0517,0.0566,0.0622,0.0654,0.0704,0.0692,0.0733,0.0739,0.0741,0.075,0.073,0.0731,0.0731,0.0678,0.0708,0.0733,0.0758,0.0759,0.0759,0.076,0,0.0278,0.0304,0.0341,0.0396,0.0412,0.0441,0.052,0.0552,0.0627,0.0676,0.0739,0.0769,0.0813,0.0795,0.0813,0.0809,0.0797,0.0787,0.0787,0.0725,0.0682,0.0722,0.0768,0.0768,0.0767,0.0767,0.0766,0,0.0252,0.0305,0.0336,0.0353,0.0415,0.0463,0.0507,0.0582,0.063,0.073,0.079,0.0831,0.0882,0.0872,0.0863,0.0855,0.087,0.0844,0.0774,0.0769,0.0797,0.0792,0.0849,0.0849,0.0849,0.0848,0.0848,0,0.0233,0.0258,0.0336,0.0349,0.0406,0.0465,0.0538,0.0595,0.069,0.0739,0.0821,0.0863,0.091,0.0923,0.089,0.0851,0.0888,0.0793,0.0775,0.0812,0.0809,0.0801,0.0795,0.0849,0.0849,0.0849,0.0849,0,0.019,0.0232,0.027,0.0354,0.0391,0.0437,0.0558,0.0604,0.0709,0.0785,0.083,0.0918,0.0932,0.0943,0.0934,0.089,0.085,0.0819,0.0873,0.0856,0.0742,0.0738,0.0758,0.0756,0.0754,0.0753,0.0752,0,0.017,0.0184,0.0265,0.03,0.0346,0.0435,0.0488,0.0604,0.0656,0.0785,0.0806,0.0885,0.0917,0.0872,0.0873,0.0829,0.0801,0.0803,0.0765,0.0754,0.0734,0.0732,0.073,0.075,0.0749,0.0749,0.0748,0,0.013,0.0155,0.0184,0.0255,0.0319,0.0395,0.0489,0.0522,0.0638,0.0736,0.0783,0.0812,0.0826,0.0819,0.0813,0.0761,0.0819,0.0787,0.0789,0.0753,0.0744,0.0726,0.0726,0.0743,0.0744,0.0744,0.0745,0,0.01,0.0106,0.0145,0.021,0.0282,0.0343,0.0398,0.0473,0.0543,0.0682,0.0676,0.0737,0.0805,0.078,0.0745,0.0728,0.0704,0.0686,0.0694,0.07,0.0666,0.0645,0.0609,0,0,0,0,0,0.0078,0.0079,0.0111,0.0173,0.0238,0.0295,0.039,0.0445,0.0543,0.0556,0.063,0.0632,0.0645,0.0666,0.0629,0.0686,0.0687,0.0641,0.0665,0.0714,0.072,0.0685,0,0,0,0,0,0,0.0059,0.0075,0.0084,0.0136,0.0177,0.0253,0.0311,0.0377,0.04,0.0496,0.0496,0.0591,0.0591,0.0648,0.0614,0.0619,0.0622,0.0679,0.0678,0.071,0.0716,0.0721,0.0687,0,0,0,0,0]},{"header":{"parameterUnit":"m.s-1","parameterCategory":2,"la1":30.2991,"la2":30.254,"lo1":-89.0895,"lo2":-89.0444,"dy":0.0017,"dx":0.0017,"nx":28,"ny":28,"refTime":"2024-10-14T03:00:00:Z","depth":"4","parameterNumber":3,"parameterNumberName":"V-component_of_CURRENTS"},"data":[0,0,0,0,0,0,0,0,0,0,0,0,0,0,0,0,0,0,0,0,0,0,0,0,0,0,0,0,0,0,0,0,0,0,0,0,0,0,0,0,0,0,0,0,0,0,0,0,0,0,0,0,0,0,0,0,0,0,0.0105,0.0105,0,0.0056,0.0056,0.0055,0.0017,0.0017,0.0016,0.0016,-0.006,-0.0062,-0.0063,0,0,0,0,0,0,0,0,0,0,0,0,0,0.0138,0.0138,0.0105,0.0105,0.0104,0.0057,0.0056,0.0055,0.0017,0.0017,0.0016,0.0016,-0.0059,-0.0061,-0.0063,0,0,0,0,0,0,0,0,0,0,0,0,0,0.0109,0.0138,0.0105,0.008,0.0078,0.0057,0.0056,0.0055,0.0017,0.0017,0.0016,0.0016,-0.0059,-0.0061,-0.0064,-0.0072,0,0,-0.0072,-0.0073,0,0,0,0,0,0,0,0,0.0111,0.0108,0.0084,0.0082,0.0079,0.0043,0.0039,0.0012,0.0017,0.0039,0.0016,0.0016,-0.0027,-0.0032,-0.0042,-0.0075,-0.0078,-0.0072,-0.0074,-0.0075,-0.0076,0,0,0,0,0,0,0,0.0113,0.0109,0.0085,0.0084,0.0081,0.0062,0.0058,0.0034,0.0008,0.0037,0.0034,0.0031,-0.0029,-0.0039,-0.0044,-0.008,-0.0072,-0.0074,-0.0076,-0.0077,-0.0175,-0.0176,0,0,0,0,0,0,0.0123,0.0112,0.0086,0.0083,0.0095,0.0062,0.0057,0.0054,0.0008,0.0002,0.0031,0.0029,-0.0034,-0.004,-0.0046,-0.0069,-0.0075,-0.0077,-0.0079,-0.0174,-0.0175,-0.0176,0,0,0,0,0,0,0.0124,0.0121,0.0088,0.0097,0.0092,0.0062,0.0059,0.0054,0.0039,0.0004,-0.0003,0.0022,-0.0035,-0.0043,-0.0076,-0.0072,-0.0078,-0.0081,-0.0173,-0.0174,-0.0176,-0.0107,0,0,0,0,0,0,0.0125,0.0122,0.0124,0.0098,0.0092,0.0081,0.006,0.0053,0.0038,0.0035,-0.0006,-0.0013,-0.0036,-0.0072,-0.0079,-0.0076,-0.0083,-0.0171,-0.0173,-0.0175,-0.0108,-0.0106,-0.0105,0,0,0,0,0,0.0126,0.0133,0.0124,0.0121,0.0095,0.0082,0.0077,0.0053,0.0038,0.0037,0.0001,-0.0012,-0.009,-0.0075,-0.0083,-0.008,-0.017,-0.0173,-0.0175,-0.0109,-0.0107,-0.0105,0,0,0,0,0,0,0.0147,0.0129,0.0119,0.012,0.0104,0.0076,0.0073,0.0054,0.0025,0.0018,-0.0019,-0.0029,-0.0062,-0.0086,-0.0069,-0.0119,-0.0135,-0.0139,-0.0082,-0.008,-0.0078,-0.0066,-0.0085,0,0,0,0,0,0.0154,0.0156,0.0133,0.0135,0.0127,0.0099,0.009,0.0074,0.0045,0.0032,0.0001,-0.0039,-0.0077,-0.0089,-0.0128,-0.0144,-0.0169,-0.0153,-0.0151,-0.0149,-0.0148,-0.0186,-0.0187,-0.0184,-0.0184,-0.0184,0,0,0.0161,0.0154,0.0154,0.014,0.0124,0.0119,0.0092,0.0081,0.0078,0.0028,0.001,-0.0036,-0.0085,-0.0111,-0.0127,-0.0126,-0.0162,-0.0152,-0.0149,-0.015,-0.0189,-0.0188,-0.0188,-0.0185,-0.0185,-0.0185,0,0,0.0179,0.0172,0.0176,0.0167,0.015,0.0136,0.0134,0.0103,0.0091,0.0067,0.0022,-0.0019,-0.0067,-0.0099,-0.0122,-0.0135,-0.0159,-0.0153,-0.0118,-0.0154,-0.0154,-0.0154,-0.0172,-0.0174,-0.014,-0.014,-0.014,0,0.0187,0.0191,0.0176,0.0177,0.0174,0.0145,0.0147,0.0134,0.0097,0.0083,0.0068,-0.0025,-0.006,-0.0098,-0.0104,-0.0127,-0.0149,-0.0113,-0.0148,-0.0149,-0.015,-0.0168,-0.0172,-0.0137,-0.0138,-0.0138,-0.0138,0,0.0203,0.0207,0.021,0.0204,0.0201,0.0199,0.0182,0.017,0.0148,0.0124,0.0078,0.0024,-0.0033,-0.005,-0.0078,-0.0109,-0.0122,-0.0145,-0.0142,-0.0145,-0.0166,-0.017,-0.0133,-0.0134,-0.0135,-0.0136,0,0,0.0214,0.0219,0.022,0.0224,0.0215,0.0213,0.0213,0.0197,0.0185,0.015,0.0125,0.0064,0.0024,-0.0007,-0.005,-0.0073,-0.0095,-0.0105,-0.0108,-0.0102,-0.0163,-0.0164,-0.017,-0.0121,-0.0122,-0.0123,-0.0167,0,0.0227,0.0243,0.0242,0.0256,0.026,0.0244,0.0246,0.0229,0.0203,0.0172,0.0122,0.0075,0.0046,0.0012,-0.0015,-0.0091,-0.0107,-0.008,-0.018,-0.0183,-0.0166,-0.0176,-0.0126,-0.0171,-0.0172,-0.0173,-0.0173,0,0.0237,0.0249,0.0269,0.0279,0.0279,0.0286,0.0277,0.0274,0.0232,0.0206,0.016,0.0106,0.0055,0.0029,-0.0063,-0.0046,-0.0097,-0.0141,-0.0145,-0.0174,-0.0193,-0.0175,-0.0182,-0.0181,-0.0181,-0.018,-0.018,0,0.025,0.0266,0.0288,0.0291,0.0298,0.0305,0.0307,0.0281,0.0275,0.0224,0.0198,0.0128,0.0081,0.0013,-0.0081,-0.0077,-0.0181,-0.0189,-0.0231,-0.0231,-0.0243,-0.0243,-0.0246,-0.0246,-0.0246,-0.0246,-0.0246,0,0.026,0.0275,0.0298,0.0309,0.033,0.0328,0.0338,0.0321,0.0296,0.0277,0.0217,0.0174,0.0072,-0.0004,-0.0075,-0.0168,-0.0178,-0.0226,-0.0246,-0.0213,-0.0209,-0.0245,-0.0245,-0.0248,-0.0247,-0.0247,-0.0247,0,0.0266,0.028,0.0306,0.0328,0.0338,0.0354,0.0372,0.0369,0.0343,0.0316,0.0298,0.0202,0.0096,0.0002,-0.0124,-0.0165,-0.0252,-0.0281,-0.0229,-0.0245,-0.0273,-0.0268,-0.0322,-0.0322,-0.0323,-0.0323,-0.0323,0,0.0268,0.0284,0.0326,0.0344,0.0358,0.0384,0.0398,0.0393,0.0386,0.0325,0.0304,0.0198,0.0124,-0.0046,-0.0143,-0.0265,-0.0283,-0.0308,-0.0294,-0.0269,-0.0283,-0.0278,-0.0273,-0.0324,-0.0324,-0.0324,-0.0324,0,0.027,0.029,0.0315,0.0353,0.0381,0.0414,0.0432,0.0421,0.0399,0.0387,0.0289,0.0191,0.0071,-0.006,-0.0158,-0.0245,-0.0281,-0.0313,-0.0312,-0.0299,-0.0272,-0.0285,-0.0279,-0.0326,-0.0326,-0.0325,-0.0325,0,0.0272,0.0292,0.0325,0.0352,0.0392,0.0415,0.0429,0.041,0.0401,0.0331,0.0295,0.0164,0.009,-0.0051,-0.0144,-0.0229,-0.0243,-0.0249,-0.0252,-0.0251,-0.0218,-0.0172,-0.0214,0,0,0,0,0,0.0268,0.0286,0.0315,0.0345,0.0384,0.0412,0.0433,0.0438,0.0412,0.0348,0.0321,0.0205,0.0045,-0.0033,-0.0119,-0.0145,-0.025,-0.0245,-0.0256,-0.0334,-0.0332,-0.0307,0,0,0,0,0,0,0.0266,0.0297,0.0309,0.0329,0.035,0.0396,0.0413,0.0403,0.0363,0.0323,0.023,0.0201,0.0039,0.0089,-0.0119,-0.0145,-0.0158,-0.0317,-0.0318,-0.0335,-0.0334,-0.0332,-0.0305,0,0,0,0,0]}]]